Tracking 19706 objects as of 16-Jun-2019
HD Live streaming from Space Station
objects crossing your sky now

LES 5

Track LES 5 now!
LES 5 is classified as:


NORAD ID: 2866
Int'l Code: 1967-066E
Perigee: 33,194.8 km
Apogee: 33,621.5 km
Inclination: 3.6 °
Period: 1,316.0 minutes
Semi major axis: 39779 km
RCS: 2.6184 m2 (large)
Launch date: July 1, 1967
Source: United States (US)
Launch site: AIR FORCE EASTERN TEST RANGE (AFETR)
aabbcc
Your satellite tracking list
Your tracking list is empty




NASA's NSSDC Master Catalog

Two Line Element Set (TLE):
1  2866U 67066E   19166.42393036 -.00000108 +00000-0 +00000-0 0  9990
2  2866 003.6371 281.8616 0053629 341.9977 068.1592 01.09425880103036
Source of the keplerian elements: AFSPC